Regional Weather Roundup
Issued by NWS

Home | Current Version | Previous Version | Text Only | Print | Product List | Glossary On
Versions: 1 2 3 4 5 6 7 8 9 10 11 12 13 14 15 16 17 18 19 20 21 22 23 24 25 26 27 28 29 30 31 32 33 34 35 36 37 38 39 40 41 42 43 44 45 46 47 48 49 50
000
ASUS44 KLIX 071413
RWRLA
LOUISIANA WEATHER ROUNDUP
NATIONAL WEATHER SERVICE NEW ORLEANS LA
800 AM CST WED DEC 07 2016

NOTE: "FAIR" INDICATES FEW OR NO CLOUDS BELOW 12,000 FEET WITH NO
      SIGNIFICANT WEATHER AND/OR OBSTRUCTIONS TO VISIBILITY.
      SKY/WX - SKY CONDITION AND SIGNIFICANT WEATHER.
      TMP - AIR TEMPERATURE.    DP   - DEWPOINT TEMPERATURE.
      RH  - RELATIVE HUMIDITY.  PRES - PRESSURE.
      HX  - HEAT INDEX.         WCI  - WIND CHILL INDEX.

*  THESE STATIONS ARE NOT NWS OR FAA STATIONS AND ARE NOT UNDER
   NWS QUALITY CONTROL.

LAZ040-048-061>063-065-066-069-071500-
SOUTHEAST LOUISIANA

CITY           SKY/WX    TMP DP  RH WIND       PRES   REMARKS
N.O. AUDUBON   NOT AVBL
N.O. INTL ARPT CLOUDY    56  55  97 E5        30.10R
N.O. LAKEFRONT CLOUDY    56  53  90 E5        30.11R FOG
N.O. DOWNTOWN*   N/A     56  53  90 E3        30.11R
RESERVE*       CLOUDY    57  55  91 NE3       30.11R
SLIDELL        CLOUDY    54  51  90 CALM      30.11R
BATON ROUGE    CLOUDY    53  51  93 E3        30.11R
BOOTHVILLE     CLOUDY    56  56 100 NE5       30.10S
BELLE CHASSE   CLOUDY    56  54  93 E5        30.10R FOG
BOGALUSA*      CLOUDY    53  49  87 CALM      30.12R
GALLIANO*      CLOUDY    57  54  87 CALM      30.10R
NEW ROADS*     CLOUDY    51  49  93 NE3       30.11R
GONZALES*      CLOUDY    55  53  93 MISG      30.10R
HAMMOND*       CLOUDY    54  48  82 E3        30.11R
HOUMA*           N/A     55  55 100 NE8       30.10R FOG
PORT FOURCHON* PTSUNNY   61  57  88 NE13      30.08S

$$

LAZ041-044-053-054-071500-
SOUTHWEST LOUISIANA

CITY           SKY/WX    TMP DP  RH WIND       PRES   REMARKS
LAKE CHARLES   CLOUDY    54  53  97 E7        30.09R FOG
LAFAYETTE        N/A     55  53  93 NE3       30.09R
PATTERSON      CLOUDY   N/A N/A N/A E8        30.10R
SALT POINT     NOT AVBL
NEW IBERIA     CLOUDY    55  51  86 E5        30.10R
CHENAULT AIRPK CLOUDY    54  52  94 VRB3      30.09R FOG

$$

LAZ027-028-071500-
CENTRAL LOUISIANA

CITY           SKY/WX    TMP DP  RH WIND       PRES   REMARKS
FORT POLK      FOG       50  50  99 SE3       30.09R VSB 1/2
ALEXANDRIA INT CLOUDY    50  49  96 NE3       30.09R
ALEXANDRIA     CLOUDY    51  49  92 CALM      30.11R

$$

LAZ001-002-071500-
NORTHWEST LOUISIANA

CITY           SKY/WX    TMP DP  RH WIND       PRES   REMARKS
SHREVEPORT     CLOUDY    51  48  89 E6        30.10R
BARKSDALE AFB  CLOUDY    50  49  99 E3        30.11R
DTN SHREVEPORT CLOUDY    51  47  86 E5        30.11R

$$

LAZ014-016-071500-
NORTHEAST LOUISIANA

CITY           SKY/WX    TMP DP  RH WIND       PRES   REMARKS
MONROE         CLOUDY    48  45  89 NE7       30.14R
TALLULAH       CLOUDY    48  46  93 NE7       30.13R

$$




USA.gov is the U.S. government's official web portal to all federal, state and local government web resources and services.